Time,TemperatureF,DewpointF,PressureIn,WindDirection,WindDirectionDegrees,WindSpeedMPH,WindSpeedGustMPH,Humidity,HourlyPrecipIn,Conditions,Clouds,dailyrainin,SoftwareType,DateUTC
2013-08-26 00:14:00,62.0,61.0,30.29,NNE,28,0.0,0.0,96,0.00,,,0.01,,2013-08-26 04:14:00,
2013-08-26 00:53:00,61.0,60.0,30.30,NNE,29,0.0,0.0,96,0.00,,,0.01,,2013-08-26 04:53:00,
2013-08-26 01:13:00,61.0,60.0,30.29,NNE,29,0.0,0.0,96,0.00,,,0.01,,2013-08-26 05:13:00,
2013-08-26 01:23:00,61.0,60.0,30.29,NNE,28,0.0,0.0,96,0.00,,,0.01,,2013-08-26 05:23:00,
2013-08-26 01:43:00,60.0,59.0,30.29,NNE,28,0.0,1.0,96,0.00,,,0.01,,2013-08-26 05:43:00,
2013-08-26 01:52:00,60.0,59.0,30.30,NNE,28,0.0,0.0,97,0.00,,,0.01,,2013-08-26 05:52:00,
2013-08-26 02:12:00,60.0,59.0,30.29,NNE,29,0.0,0.0,96,0.00,,,0.01,,2013-08-26 06:12:00,
2013-08-26 02:22:00,60.0,59.0,30.28,NNE,28,0.0,0.0,97,0.00,,,0.01,,2013-08-26 06:22:00,
2013-08-26 02:42:00,60.0,59.0,30.28,NNE,28,0.0,0.0,97,0.00,,,0.01,,2013-08-26 06:42:00,
2013-08-26 02:52:00,60.0,59.0,30.28,NNE,29,0.0,0.0,97,0.00,,,0.01,,2013-08-26 06:52:00,
2013-08-26 03:22:00,60.0,59.0,30.28,NNE,28,0.0,0.0,97,0.00,,,0.01,,2013-08-26 07:22:00,
2013-08-26 03:42:00,60.0,59.0,30.28,NNE,29,0.0,0.0,97,0.00,,,0.01,,2013-08-26 07:42:00,
2013-08-26 03:52:00,60.0,59.0,30.28,NNE,29,0.0,0.0,97,0.00,,,0.01,,2013-08-26 07:52:00,
2013-08-26 04:12:00,60.0,59.0,30.28,NNE,29,0.0,0.0,97,0.00,,,0.01,,2013-08-26 08:12:00,
2013-08-26 04:22:00,61.0,60.0,30.27,NNE,29,0.0,0.0,97,0.00,,,0.01,,2013-08-26 08:22:00,
2013-08-26 04:52:00,61.0,60.0,30.27,NNE,28,0.0,0.0,97,0.00,,,0.01,,2013-08-26 08:52:00,
2013-08-26 05:11:00,61.0,60.0,30.27,NNE,29,0.0,0.0,97,0.00,,,0.01,,2013-08-26 09:11:00,
2013-08-26 05:22:00,61.0,60.0,30.27,NNE,28,0.0,0.0,97,0.00,,,0.00,,2013-08-26 09:22:00,
2013-08-26 05:54:00,61.0,60.0,30.27,NNE,28,0.0,0.0,96,0.00,,,0.00,,2013-08-26 09:54:00,
2013-08-26 06:12:00,61.0,60.0,30.27,NNE,29,0.0,1.0,96,0.00,,,0.00,,2013-08-26 10:12:00,
2013-08-26 06:23:00,61.0,60.0,30.26,NNE,28,0.0,0.0,96,0.00,,,0.00,,2013-08-26 10:23:00,
2013-08-26 06:52:00,60.0,59.0,30.26,NNE,28,0.0,0.0,97,0.00,,,0.00,,2013-08-26 10:52:00,
2013-08-26 07:12:00,60.0,59.0,30.27,NNE,29,0.0,0.0,97,0.00,,,0.00,,2013-08-26 11:12:00,
2013-08-26 07:22:00,60.0,59.0,30.27,NNE,29,0.0,0.0,97,0.00,,,0.00,,2013-08-26 11:22:00,
2013-08-26 07:52:00,60.0,59.0,30.27,NNE,28,0.0,0.0,97,0.00,,,0.00,,2013-08-26 11:52:00,
2013-08-26 08:12:00,61.0,60.0,30.27,NNE,28,0.0,0.0,97,0.00,,,0.00,,2013-08-26 12:12:00,
2013-08-26 08:22:00,62.0,61.0,30.27,NNE,29,0.0,1.0,97,0.00,,,0.00,,2013-08-26 12:22:00,
2013-08-26 08:52:00,66.0,63.0,30.28,East,86,0.0,3.0,90,0.00,,,0.00,,2013-08-26 12:52:00,
2013-08-26 09:12:00,68.0,64.0,30.28,East,96,0.0,2.0,87,0.00,,,0.00,,2013-08-26 13:12:00,
2013-08-26 09:22:00,69.0,65.0,30.28,ENE,67,1.0,2.0,86,0.00,,,0.00,,2013-08-26 13:22:00,
2013-08-26 09:42:00,70.0,64.0,30.28,ENE,72,0.0,2.0,82,0.00,,,0.00,,2013-08-26 13:42:00,
2013-08-26 09:52:00,72.0,66.0,30.28,NE,36,0.0,1.0,81,0.00,,,0.00,,2013-08-26 13:52:00,
2013-08-26 10:22:00,74.0,66.0,30.29,East,84,1.0,3.0,76,0.00,,,0.00,,2013-08-26 14:22:00,
2013-08-26 10:42:00,75.0,65.0,30.29,ENE,76,2.0,4.0,72,0.00,,,0.00,,2013-08-26 14:42:00,
2013-08-26 10:52:00,76.0,66.0,30.29,NNW,345,1.0,4.0,72,0.00,,,0.00,,2013-08-26 14:52:00,
2013-08-26 11:12:00,77.0,66.0,30.29,ENE,66,2.0,4.0,69,0.00,,,0.00,,2013-08-26 15:12:00,
2013-08-26 11:22:00,78.0,67.0,30.29,East,84,2.0,3.0,68,0.00,,,0.00,,2013-08-26 15:22:00,
2013-08-26 11:47:00,78.0,67.0,30.29,ENE,58,1.0,4.0,68,0.00,,,0.00,,2013-08-26 15:47:00,
2013-08-26 11:59:00,79.0,67.0,30.28,North,4,3.0,6.0,66,0.00,,,0.00,,2013-08-26 15:59:00,
2013-08-26 12:17:00,79.0,66.0,30.28,NW,316,2.0,5.0,65,0.00,,,0.00,,2013-08-26 16:17:00,
2013-08-26 12:29:00,79.0,68.0,30.28,East,92,2.0,4.0,69,0.00,,,0.00,,2013-08-26 16:29:00,
2013-08-26 12:59:00,81.0,69.0,30.28,East,82,2.0,5.0,67,0.00,,,0.00,,2013-08-26 16:59:00,
2013-08-26 13:12:00,81.0,68.0,30.27,East,82,1.0,3.0,64,0.00,,,0.00,,2013-08-26 17:12:00,
2013-08-26 13:24:00,81.0,67.0,30.27,WNW,300,1.0,3.0,62,0.00,,,0.00,,2013-08-26 17:24:00,
2013-08-26 13:43:00,82.0,68.0,30.26,NNW,329,2.0,4.0,62,0.00,,,0.00,,2013-08-26 17:43:00,
2013-08-26 13:53:00,81.0,68.0,30.26,ENE,73,0.0,6.0,64,0.00,,,0.00,,2013-08-26 17:53:00,
2013-08-26 14:12:00,81.0,69.0,30.25,East,79,1.0,2.0,67,0.00,,,0.00,,2013-08-26 18:12:00,
2013-08-26 14:22:00,81.0,68.0,30.24,NW,321,1.0,4.0,65,0.00,,,0.00,,2013-08-26 18:22:00,
2013-08-26 14:52:00,82.0,69.0,30.22,NW,316,0.0,1.0,65,0.00,,,0.00,,2013-08-26 18:52:00,
2013-08-26 15:11:00,83.0,68.0,30.21,NE,44,1.0,2.0,60,0.00,,,0.00,,2013-08-26 19:11:00,
2013-08-26 15:22:00,84.0,70.0,30.21,South,191,0.0,2.0,63,0.00,,,0.00,,2013-08-26 19:22:00,
2013-08-26 15:42:00,83.0,67.0,30.20,East,82,0.0,3.0,59,0.00,,,0.00,,2013-08-26 19:42:00,
2013-08-26 15:52:00,83.0,67.0,30.19,WNW,286,0.0,1.0,59,0.00,,,0.00,,2013-08-26 19:52:00,
2013-08-26 16:11:00,84.0,68.0,30.18,SE,136,0.0,3.0,58,0.00,,,0.00,,2013-08-26 20:11:00,
2013-08-26 16:22:00,84.0,67.0,30.18,NE,51,1.0,4.0,57,0.00,,,0.00,,2013-08-26 20:22:00,
2013-08-26 16:43:00,82.0,69.0,30.17,NE,40,0.0,2.0,64,0.00,,,0.00,,2013-08-26 20:43:00,
2013-08-26 16:52:00,83.0,70.0,30.16,NNE,21,0.0,1.0,65,0.00,,,0.00,,2013-08-26 20:52:00,
2013-08-26 17:22:00,83.0,69.0,30.15,WSW,256,0.0,0.0,62,0.00,,,0.00,,2013-08-26 21:22:00,
2013-08-26 17:55:00,79.0,70.0,30.15,WSW,256,0.0,0.0,73,0.00,,,0.00,,2013-08-26 21:55:00,
2013-08-26 18:16:00,80.0,70.0,30.15,WSW,256,0.0,0.0,72,0.00,,,0.00,,2013-08-26 22:16:00,
2013-08-26 18:26:00,81.0,69.0,30.14,WSW,255,0.0,0.0,67,0.00,,,0.00,,2013-08-26 22:26:00,
2013-08-26 18:53:00,78.0,69.0,30.14,WSW,255,0.0,0.0,73,0.00,,,0.00,,2013-08-26 22:53:00,
2013-08-26 19:22:00,76.0,69.0,30.14,WSW,256,0.0,0.0,79,0.00,,,0.00,,2013-08-26 23:22:00,
2013-08-26 19:52:00,74.0,69.0,30.14,WSW,256,0.0,0.0,84,0.00,,,0.00,,2013-08-26 23:52:00,
2013-08-26 20:22:00,72.0,68.0,30.14,WSW,256,0.0,0.0,88,0.00,,,0.00,,2013-08-27 00:22:00,
2013-08-26 20:42:00,71.0,68.0,30.15,WSW,257,0.0,0.0,89,0.00,,,0.00,,2013-08-27 00:42:00,
2013-08-26 20:52:00,70.0,67.0,30.15,WSW,256,0.0,0.0,90,0.00,,,0.00,,2013-08-27 00:52:00,
2013-08-26 21:12:00,69.0,66.0,30.15,WSW,256,0.0,0.0,90,0.00,,,0.00,,2013-08-27 01:12:00,
2013-08-26 21:22:00,68.0,66.0,30.15,WSW,256,0.0,0.0,92,0.00,,,0.00,,2013-08-27 01:22:00,
2013-08-26 21:52:00,67.0,65.0,30.15,WSW,256,0.0,0.0,94,0.00,,,0.00,,2013-08-27 01:52:00,
2013-08-26 22:22:00,66.0,64.0,30.16,WSW,256,0.0,0.0,94,0.00,,,0.00,,2013-08-27 02:22:00,
2013-08-26 22:42:00,66.0,65.0,30.16,WSW,256,0.0,0.0,95,0.00,,,0.00,,2013-08-27 02:42:00,
2013-08-26 22:52:00,65.0,64.0,30.15,WSW,256,0.0,0.0,95,0.00,,,0.00,,2013-08-27 02:52:00,
2013-08-26 23:23:00,65.0,64.0,30.16,WSW,256,0.0,0.0,96,0.00,,,0.00,,2013-08-27 03:23:00,
2013-08-26 23:44:00,64.0,63.0,30.16,WSW,256,0.0,0.0,96,0.00,,,0.00,,2013-08-27 03:44:00,
2013-08-26 23:58:00,64.0,63.0,30.16,WSW,256,0.0,0.0,96,0.00,,,0.00,,2013-08-27 03:58:00,